Asyut, Egypt

11:43 AM EET on November 24, 2017 (GMT +0200)
Asyut

Weather History for HEAT - March, 2013

Change the Weather History Date:

Thursday, March 14, 2013

  Actual Average Record
Temperature  
Mean Temperature 80 °F -  
Max Temperature 103 °F 83 °F - ()
Min Temperature 57 °F 53 °F - ()
Cooling Degree Days 15    
Growing Degree Days 30 (Base 50)    
Moisture  
Dew Point 39 °F    
Average Humidity 25    
Maximum Humidity 46    
Minimum Humidity 6    
Precipitation  
Precipitation 0.00 in 0.00 in - ()
Sea Level Pressure  
Sea Level Pressure 29.83 in    
Wind  
Wind Speed 4 mph ()    
Max Wind Speed 10 mph    
Max Gust Speed -    
Visibility 6.0 miles    
Events      
T = Trace of Precipitation, MM = Missing Value Source: Averaged Metar Reports

Daily Weather History Graph

Daily Weather History Graph

Search for Another Location

Airport or City:

Trip Planner

Search our weather history database for the weather conditions in past years. The results will help you decide how hot, cold, wet, or windy it might be!

Date:

Astronomy

Mar. 14, 2013 Rise Set
Actual Time 6:06 AM EET 6:04 PM EET
Civil Twilight 5:43 AM EET 6:27 PM EET
Nautical Twilight 5:16 AM EET 6:54 PM EET
Astronomical Twilight 4:49 AM EET 7:21 PM EET
Moon 7:26 AM EET (3/14) 8:40 PM EET (3/14)
Length of Visible Light 12h 44m
Length of Day
11h 57m
Waxing Crescent, 7% of the Moon is Illuminated
Mar 14
Waxing Crescent
Mar 19
First Quarter
Mar 27
Full
Apr 3
Last Quarter
Apr 10
New

Hourly Weather History & Observations

Time (EET) Temp. Dew Point Humidity Pressure Visibility Wind Dir Wind Speed Gust Speed Precip Events Conditions
12:00 AM 68.0 °F 39.2 °F 35% 29.89 in - NNE 4.6 mph - N/A   Clear
1:00 AM 66.2 °F 44.6 °F 46% 29.86 in - NE 2.3 mph - N/A   Clear
2:00 AM 65 °F 41 °F 29% 29.84 in 6 mi East 1.2 mph - -  
2:00 AM 64.4 °F 41.0 °F 42% 29.86 in - East 1.2 mph - N/A   Clear
3:00 AM 64.4 °F 41.0 °F 42% 29.86 in - East 2.3 mph - N/A   Clear
4:00 AM 62.6 °F 41.0 °F 45% 29.86 in - ENE 3.5 mph - N/A   Clear
5:00 AM 59.0 °F 32.0 °F 36% 29.83 in - South 4.6 mph - N/A   Clear
6:00 AM 59.0 °F 30.2 °F 34% 29.86 in - SE 5.8 mph - N/A   Clear
7:00 AM 59.0 °F 28.4 °F 31% 29.86 in - ESE 10.4 mph - N/A   Clear
8:00 AM 65 °F 35 °F 22% 29.87 in 6 mi SSW 1.2 mph - -  
8:00 AM 64.4 °F 35.6 °F 34% 29.89 in - SSW 1.2 mph - N/A   Clear
9:00 AM 75.2 °F 37.4 °F 25% 29.89 in - SSW 1.2 mph - N/A   Clear
10:00 AM 78.8 °F 37.4 °F 23% 29.89 in - East 1.2 mph - N/A   Clear
11:00 AM 89.6 °F 37.4 °F 16% 29.89 in - ENE 3.5 mph - N/A   Clear
12:31 PM 91.4 °F 37.4 °F 15% 29.86 in - SSE 6.9 mph - N/A   Clear
1:00 PM 93.2 °F 37.4 °F 14% 29.86 in - SSE 9.2 mph - N/A   Clear
2:00 PM 100 °F 38 °F 6% 29.75 in 6 mi ESE 8.1 mph - -  
2:00 PM 100.4 °F 37.4 °F 11% 29.80 in - ESE 8.1 mph - N/A   Clear
3:00 PM 100.4 °F 37.4 °F 11% 29.80 in - South 3.5 mph - N/A   Clear
4:00 PM 100.4 °F 37.4 °F 11% 29.77 in - SSE 5.8 mph - N/A   Clear
5:00 PM 98.6 °F 42.8 °F 15% 29.77 in - ESE 6.9 mph - N/A   Clear
6:00 PM 95.0 °F 42.8 °F 16% 29.77 in - ESE 8.1 mph - N/A   Clear
7:00 PM 95.0 °F 42.8 °F 16% 29.77 in - ESE 9.2 mph - N/A   Clear
8:00 PM 85 °F 46 °F 16% 29.75 in 6 mi ESE 9.2 mph - -  
8:00 PM 86.0 °F 46.4 °F 25% 29.80 in - ESE 9.2 mph - N/A   Clear
9:00 PM 82.4 °F 46.4 °F 28% 29.80 in - SE 5.8 mph - N/A   Clear
10:00 PM 78.8 °F 46.4 °F 32% 29.80 in - SE 4.6 mph - N/A   Clear
11:00 PM 75.2 °F 42.8 °F 31% 29.80 in - SE 9.2 mph - N/A   Clear